Zurück zum Katalog

STARLINK-35623

AktivKommunikationVLEO
NORAD 66138·PAYLOAD·🇺🇸 United States

Gestartet Oct 22, 2025 von Vandenberg Space Force Base

Loading…

Nächste Überflüge (nächste 24 Stunden)

TLE

AktuellSource: CelesTrak SupGP

Epoche: Sep 15, 2026, 02:28 UTC

1 66138C 25237AA  26258.10326389 -.00037363  00000+0 -11037-2 0  2583
2 66138  53.1581 238.7070 0001374  90.1513   1.5369 15.34413569    16

Verfolge STARLINK-35623 in Echtzeit mit AllMySat

Download on the App Store